This demonstration page uses our WeatherBlox Daily Observations layout. Learn more.

Left ArrowRight Arrow

39.29038, -76.61219

Hourly Observations for May 21, 2017

Temp ( °F °C ) Dew Point ( °F °C ) Humidity (%) Winds ( mph kmh ) Pressure ( in mb ) Visibility ( mi km ) Precip ( " mm )
12:54 am 00:54 undefined 61 16.1 46 7.8 58 58 undefined N/A 30.33 1027 N/A N/A
1:54 am 01:54 undefined 61 16.1 40 4.4 46 46 undefined N/A 30.32 1027 N/A N/A
2:54 am 02:54 undefined 61 16.1 40 4.4 46 46 undefined N/A 30.30 1026 N/A N/A
3:54 am 03:54 undefined 61 16.1 40 4.4 46 46 undefined N/A 30.30 1026 N/A N/A
4:54 am 04:54 undefined 60 15.6 43 6.1 53 53 undefined N/A 30.29 1026 N/A N/A
5:54 am 05:54 undefined 60 15.6 44 6.7 56 56 undefined N/A 30.29 1026 N/A N/A
6:54 am 06:54 undefined 60 15.6 45 7.2 58 58 undefined N/A 30.29 1026 N/A N/A
7:54 am 07:54 undefined 60 15.6 44 6.7 56 56 undefined N/A 30.33 1027 N/A N/A
8:54 am 08:54 undefined 60 15.6 45 7.2 58 58 undefined N/A 30.35 1028 N/A N/A
9:54 am 09:54 undefined 62 16.7 47 8.3 58 58 undefined N/A 30.33 1027 N/A N/A
10:54 am 10:54 undefined 63 17.2 46 7.8 54 54 undefined N/A 30.32 1027 N/A N/A
11:54 am 11:54 undefined 63 17.2 47 8.3 56 56 undefined N/A 30.33 1027 N/A N/A
12:54 pm 12:54 undefined 64 17.8 49 9.4 58 58 undefined N/A 30.31 1026 N/A N/A
1:54 pm 13:54 undefined 66 18.9 50 10 56 56 undefined N/A 30.29 1026 N/A N/A
2:54 pm 14:54 undefined 66 18.9 49 9.4 54 54 undefined N/A 30.28 1025 N/A N/A
3:54 pm 15:54 undefined 68 20 50 10 53 53 undefined N/A 30.26 1025 N/A N/A
4:54 pm 16:54 undefined 66 18.9 50 10 56 56 undefined N/A 30.24 1024 N/A N/A
5:54 pm 17:54 undefined 66 18.9 50 10 56 56 undefined N/A 30.23 1024 N/A N/A
6:54 pm 18:54 undefined 66 18.9 52 11.1 61 61 undefined N/A 30.22 1023 N/A N/A
7:54 pm 19:54 undefined 64 17.8 54 12.2 70 70 undefined N/A 30.23 1024 N/A N/A
8:54 pm 20:54 undefined 63 17.2 53 11.7 70 70 undefined N/A 30.23 1024 N/A N/A
9:54 pm 21:54 undefined 63 17.2 52 11.1 68 68 undefined N/A 30.22 1024 N/A N/A
10:54 pm 22:54 undefined 62 16.7 52 11.1 70 70 undefined N/A 30.22 1023 N/A N/A
11:54 pm 23:54 undefined 62 16.7 52 11.1 70 70 undefined N/A 30.20 1023 N/A N/A

Powered by AerisWeather